Pilot No. 4 — WDA5463 — position and weather

sailwx.info

Track history (hours):
 
Tides and Currents Weather Stations Pressure Air Temp Water Temp Dewpoint Dewpoint Depression Visibility Wind Speed Wind Dir Waves Ship Positions

Pilot No. 4

Owner: P E P Inc, FORT LAUDERDALE, FL. More information available from US FCC via Universal Licensing System and Coast Guard Vessel Documentation Center.

Last reported at 2014-Oct-22 01:34 UTC. Time now 2014-Oct-22 06:23 UTC.
Position N 26°06' W 080°07'.

MMSI: 495270931.

Date/timePositionNaut miles runAvg speedWind from/ knotsBaromVisibWave heightAir tempDewpointWater temp
2014-Oct-22 01:34N 26°06' W 080°07'0 0.3
2014-Oct-22 00:33N 26°06' W 080°07'3 2.9
2014-Oct-21 23:33N 26°05' W 080°04'2 2.4
2014-Oct-21 22:34N 26°06' W 080°06'1 0.2
2014-Oct-21 17:06N 26°06' W 080°07'1 2.7
2014-Oct-21 16:34N 26°06' W 080°06'1 0.3
2014-Oct-21 12:20N 26°06' W 080°07'2 2.2
2014-Oct-21 11:34N 26°06' W 080°06'2 1.7
2014-Oct-21 10:33N 26°06' W 080°07'1 1.1
2014-Oct-21 09:33N 26°05' W 080°07'1 1.1
2014-Oct-21 08:33N 26°06' W 080°07'0 0.0
2014-Oct-21 07:33N 26°06' W 080°07'0 0.0
2014-Oct-21 06:33N 26°06' W 080°07'0 0.0
2014-Oct-21 05:33N 26°06' W 080°07'1 0.6
2014-Oct-21 04:33N 26°06' W 080°07'0 0.4
2014-Oct-21 03:34N 26°06' W 080°07'1 0.8
2014-Oct-21 02:33N 26°06' W 080°07'0 0.0
2014-Oct-21 01:32N 26°06' W 080°07'0 0.0
2014-Oct-21 00:33N 26°06' W 080°07'0 0.0
2014-Oct-20 23:33N 26°06' W 080°07'0 0.0
2014-Oct-20 22:33N 26°06' W 080°07'0 0.0
2014-Oct-20 21:33N 26°06' W 080°07'0 0.0
2014-Oct-20 20:33N 26°06' W 080°07'1 1.0
2014-Oct-20 19:33N 26°06' W 080°06'1 0.7
2014-Oct-20 18:33N 26°06' W 080°07'1 1.3
2014-Oct-20 17:33N 26°06' W 080°06'1 0.6
2014-Oct-20 15:34N 26°06' W 080°07'1 0.6
2014-Oct-20 14:33N 26°05' W 080°07'1 0.9
2014-Oct-20 13:33N 26°04' W 080°07'1 1.4
2014-Oct-20 12:34N 26°06' W 080°07'1 0.1
2014-Oct-20 03:30N 26°06' W 080°07'0 0.0
2014-Oct-20 02:33N 26°06' W 080°07'0 0.0
2014-Oct-20 01:33N 26°06' W 080°07'1 0.9
2014-Oct-20 00:34N 26°06' W 080°07'0 0.5
2014-Oct-19 23:33N 26°05' W 080°07'1 0.6
2014-Oct-19 22:34N 26°06' W 080°06'1 1.0
2014-Oct-19 21:34N 26°05' W 080°05'1 1.3
2014-Oct-19 20:33N 26°05' W 080°07'0 0.1
2014-Oct-19 19:33N 26°05' W 080°07'1 0.8
2014-Oct-19 18:33N 26°06' W 080°06'1 0.2
2014-Oct-19 12:21N 26°06' W 080°07'0 0.0
2014-Oct-19 11:33N 26°06' W 080°07'2 2.2
2014-Oct-19 10:33N 26°06' W 080°05'2 1.9
2014-Oct-19 09:33N 26°06' W 080°07'0 0.4
2014-Oct-19 08:34N 26°05' W 080°07'1 0.6
2014-Oct-19 07:33N 26°06' W 080°07'1 0.8
2014-Oct-19 06:34N 26°06' W 080°06'1 0.6
2014-Oct-19 05:33N 26°06' W 080°07'1 0.7
2014-Oct-19 04:33N 26°06' W 080°07'0 0.0
2014-Oct-19 03:34N 26°06' W 080°07'2 2.3
2014-Oct-19 02:33N 26°06' W 080°05'2 2.3
2014-Oct-19 01:33N 26°06' W 080°07'1 0.8
2014-Oct-19 00:33N 26°06' W 080°07'1 0.8
2014-Oct-18 23:33N 26°05' W 080°07'2 1.6
2014-Oct-18 22:33N 26°06' W 080°05'1 1.5
2014-Oct-18 21:33N 26°05' W 080°07'0 0.3
2014-Oct-18 20:33N 26°06' W 080°07'1 0.1
2014-Oct-18 11:25N 26°06' W 080°07'1 1.2
2014-Oct-18 10:33N 26°05' W 080°07'5 5.0
2014-Oct-18 09:34N 26°05' W 080°01'4 1.5
2014-Oct-18 06:33N 26°06' W 080°06'1 0.2
2014-Oct-18 02:08N 26°06' W 080°07'2 3.1
2014-Oct-18 01:33N 26°06' W 080°05'0 0.1
2014-Oct-18 00:33N 26°06' W 080°06'1 1.4
2014-Oct-17 23:33N 26°05' W 080°07'0 0.0
2014-Oct-17 22:33N 26°05' W 080°07'0 0.0
2014-Oct-17 21:33N 26°05' W 080°07'1 1.1
2014-Oct-17 20:34N 26°06' W 080°06'  
2014-Oct-15 11:17N 26°06' W 080°07'2 2.6
2014-Oct-15 10:33N 26°06' W 080°05'1 1.4
2014-Oct-15 09:33N 26°05' W 080°07'0 0.1
2014-Oct-15 08:33N 26°05' W 080°07'0 0.2
2014-Oct-15 07:33N 26°05' W 080°07'0 0.0
2014-Oct-15 04:33N 26°05' W 080°07'2 2.0
2014-Oct-15 03:33N 26°06' W 080°05'2 1.1
2014-Oct-15 01:33N 26°06' W 080°07'1 0.8
2014-Oct-15 00:34N 26°05' W 080°07'1 0.4
2014-Oct-14 22:09N 26°06' W 080°07'2 3.4
2014-Oct-14 21:33N 26°06' W 080°05'2 1.6
2014-Oct-14 20:34N 26°06' W 080°07'1 0.2
2014-Oct-14 16:33N 26°06' W 080°07'3 2.7
2014-Oct-14 15:34N 26°06' W 080°04'1 0.5
2014-Oct-14 14:33N 26°06' W 080°04'3 2.6
2014-Oct-14 13:34N 26°06' W 080°07'0 0.1
2014-Oct-14 12:33N 26°06' W 080°07'1 0.5
2014-Oct-14 11:33N 26°06' W 080°07'0 0.2
2014-Oct-14 10:18N 26°06' W 080°07'2 2.4
2014-Oct-14 09:33N 26°06' W 080°05'2 0.2
2014-Oct-14 02:33N 26°06' W 080°07'0 0.1
2014-Oct-14 01:34N 26°06' W 080°07'0 0.2
2014-Oct-14 00:33N 26°06' W 080°07'1 0.7
2014-Oct-13 23:34N 26°06' W 080°07'0 0.2
2014-Oct-13 22:33N 26°05' W 080°07'3 2.7
2014-Oct-13 21:33N 26°05' W 080°04'3 2.8
2014-Oct-13 20:33N 26°06' W 080°07'1 0.1
2014-Oct-13 15:07N 26°06' W 080°07'1 1.1
2014-Oct-13 14:33N 26°06' W 080°07'1 1.3
2014-Oct-13 13:34N 26°06' W 080°06'1 1.1
2014-Oct-13 12:33N 26°06' W 080°07'0 0.5
2014-Oct-13 11:33N 26°06' W 080°07'1 0.6
2014-Oct-13 10:33N 26°05' W 080°07'0 0.3
2014-Oct-13 09:33N 26°05' W 080°07'1 0.5
2014-Oct-13 07:24N 26°06' W 080°07'1 1.2
2014-Oct-13 06:33N 26°05' W 080°07'1 0.2
2014-Oct-13 01:33N 26°06' W 080°07'1 0.5
2014-Oct-13 00:33N 26°06' W 080°07'1 0.8
2014-Oct-12 23:31N 26°06' W 080°06'1 1.0
2014-Oct-12 22:32N 26°06' W 080°07'3 2.7
2014-Oct-12 21:34N 26°06' W 080°04'2 2.5
2014-Oct-12 20:33N 26°06' W 080°07'1 0.7
2014-Oct-12 19:33N 26°06' W 080°07'4 3.5
2014-Oct-12 18:34N 26°06' W 080°03'3 3.0
2014-Oct-12 17:34N 26°05' W 080°07'0 0.3
2014-Oct-12 16:33N 26°06' W 080°07'0 0.2
2014-Oct-12 15:33N 26°06' W 080°07'1 0.6
2014-Oct-12 14:33N 26°06' W 080°07'1 0.8
2014-Oct-12 13:33N 26°05' W 080°07'1 0.8
2014-Oct-12 12:33N 26°06' W 080°07'1 1.0
2014-Oct-12 11:33N 26°05' W 080°07'1 0.8
2014-Oct-12 10:23N 26°06' W 080°07'1 1.2
2014-Oct-12 09:33N 26°05' W 080°07'2 1.8
2014-Oct-12 08:33N 26°06' W 080°05'0 0.3
2014-Oct-12 07:33N 26°06' W 080°05'1 0.7
2014-Oct-12 06:33N 26°06' W 080°06'  
Track history (hours):
 
Tides and Currents Weather Stations Pressure Air Temp Water Temp Dewpoint Dewpoint Depression Visibility Wind Speed Wind Dir Waves Ship Positions

Pilot No. 4

Owner: P E P Inc, FORT LAUDERDALE, FL. More information available from US FCC via Universal Licensing System and Coast Guard Vessel Documentation Center.

Last reported at 2014-Oct-22 01:34 UTC. Time now 2014-Oct-22 06:23 UTC.
Position N 26°06' W 080°07'.

MMSI: 495270931.

Date/timePositionNaut miles runAvg speedWind from/ knotsBaromVisibWave heightAir tempDewpointWater temp
2014-Oct-22 01:34N 26°06' W 080°07'0 0.3
2014-Oct-22 00:33N 26°06' W 080°07'3 2.9
2014-Oct-21 23:33N 26°05' W 080°04'2 2.4
2014-Oct-21 22:34N 26°06' W 080°06'1 0.2
2014-Oct-21 17:06N 26°06' W 080°07'1 2.7
2014-Oct-21 16:34N 26°06' W 080°06'1 0.3
2014-Oct-21 12:20N 26°06' W 080°07'2 2.2
2014-Oct-21 11:34N 26°06' W 080°06'2 1.7
2014-Oct-21 10:33N 26°06' W 080°07'1 1.1
2014-Oct-21 09:33N 26°05' W 080°07'1 1.1
2014-Oct-21 08:33N 26°06' W 080°07'0 0.0
2014-Oct-21 07:33N 26°06' W 080°07'0 0.0
2014-Oct-21 06:33N 26°06' W 080°07'0 0.0
2014-Oct-21 05:33N 26°06' W 080°07'1 0.6
2014-Oct-21 04:33N 26°06' W 080°07'0 0.4
2014-Oct-21 03:34N 26°06' W 080°07'1 0.8
2014-Oct-21 02:33N 26°06' W 080°07'0 0.0
2014-Oct-21 01:32N 26°06' W 080°07'0 0.0
2014-Oct-21 00:33N 26°06' W 080°07'0 0.0
2014-Oct-20 23:33N 26°06' W 080°07'0 0.0
2014-Oct-20 22:33N 26°06' W 080°07'0 0.0
2014-Oct-20 21:33N 26°06' W 080°07'0 0.0
2014-Oct-20 20:33N 26°06' W 080°07'1 1.0
2014-Oct-20 19:33N 26°06' W 080°06'1 0.7
2014-Oct-20 18:33N 26°06' W 080°07'1 1.3
2014-Oct-20 17:33N 26°06' W 080°06'1 0.6
2014-Oct-20 15:34N 26°06' W 080°07'1 0.6
2014-Oct-20 14:33N 26°05' W 080°07'1 0.9
2014-Oct-20 13:33N 26°04' W 080°07'1 1.4
2014-Oct-20 12:34N 26°06' W 080°07'1 0.1
2014-Oct-20 03:30N 26°06' W 080°07'0 0.0
2014-Oct-20 02:33N 26°06' W 080°07'0 0.0
2014-Oct-20 01:33N 26°06' W 080°07'1 0.9
2014-Oct-20 00:34N 26°06' W 080°07'0 0.5
2014-Oct-19 23:33N 26°05' W 080°07'1 0.6
2014-Oct-19 22:34N 26°06' W 080°06'1 1.0
2014-Oct-19 21:34N 26°05' W 080°05'1 1.3
2014-Oct-19 20:33N 26°05' W 080°07'0 0.1
2014-Oct-19 19:33N 26°05' W 080°07'1 0.8
2014-Oct-19 18:33N 26°06' W 080°06'1 0.2
2014-Oct-19 12:21N 26°06' W 080°07'0 0.0
2014-Oct-19 11:33N 26°06' W 080°07'2 2.2
2014-Oct-19 10:33N 26°06' W 080°05'2 1.9
2014-Oct-19 09:33N 26°06' W 080°07'0 0.4
2014-Oct-19 08:34N 26°05' W 080°07'1 0.6
2014-Oct-19 07:33N 26°06' W 080°07'1 0.8
2014-Oct-19 06:34N 26°06' W 080°06'1 0.6
2014-Oct-19 05:33N 26°06' W 080°07'1 0.7
2014-Oct-19 04:33N 26°06' W 080°07'0 0.0
2014-Oct-19 03:34N 26°06' W 080°07'2 2.3
2014-Oct-19 02:33N 26°06' W 080°05'2 2.3
2014-Oct-19 01:33N 26°06' W 080°07'1 0.8
2014-Oct-19 00:33N 26°06' W 080°07'1 0.8
2014-Oct-18 23:33N 26°05' W 080°07'2 1.6
2014-Oct-18 22:33N 26°06' W 080°05'1 1.5
2014-Oct-18 21:33N 26°05' W 080°07'0 0.3
2014-Oct-18 20:33N 26°06' W 080°07'1 0.1
2014-Oct-18 11:25N 26°06' W 080°07'1 1.2
2014-Oct-18 10:33N 26°05' W 080°07'5 5.0
2014-Oct-18 09:34N 26°05' W 080°01'4 1.5
2014-Oct-18 06:33N 26°06' W 080°06'1 0.2
2014-Oct-18 02:08N 26°06' W 080°07'2 3.1
2014-Oct-18 01:33N 26°06' W 080°05'0 0.1
2014-Oct-18 00:33N 26°06' W 080°06'1 1.4
2014-Oct-17 23:33N 26°05' W 080°07'0 0.0
2014-Oct-17 22:33N 26°05' W 080°07'0 0.0
2014-Oct-17 21:33N 26°05' W 080°07'1 1.1
2014-Oct-17 20:34N 26°06' W 080°06'  
2014-Oct-15 11:17N 26°06' W 080°07'2 2.6
2014-Oct-15 10:33N 26°06' W 080°05'1 1.4
2014-Oct-15 09:33N 26°05' W 080°07'0 0.1
2014-Oct-15 08:33N 26°05' W 080°07'0 0.2
2014-Oct-15 07:33N 26°05' W 080°07'0 0.0
2014-Oct-15 04:33N 26°05' W 080°07'2 2.0
2014-Oct-15 03:33N 26°06' W 080°05'2 1.1
2014-Oct-15 01:33N 26°06' W 080°07'1 0.8
2014-Oct-15 00:34N 26°05' W 080°07'1 0.4
2014-Oct-14 22:09N 26°06' W 080°07'2 3.4
2014-Oct-14 21:33N 26°06' W 080°05'2 1.6
2014-Oct-14 20:34N 26°06' W 080°07'1 0.2
2014-Oct-14 16:33N 26°06' W 080°07'3 2.7
2014-Oct-14 15:34N 26°06' W 080°04'1 0.5
2014-Oct-14 14:33N 26°06' W 080°04'3 2.6
2014-Oct-14 13:34N 26°06' W 080°07'0 0.1
2014-Oct-14 12:33N 26°06' W 080°07'1 0.5
2014-Oct-14 11:33N 26°06' W 080°07'0 0.2
2014-Oct-14 10:18N 26°06' W 080°07'2 2.4
2014-Oct-14 09:33N 26°06' W 080°05'2 0.2
2014-Oct-14 02:33N 26°06' W 080°07'0 0.1
2014-Oct-14 01:34N 26°06' W 080°07'0 0.2
2014-Oct-14 00:33N 26°06' W 080°07'1 0.7
2014-Oct-13 23:34N 26°06' W 080°07'0 0.2
2014-Oct-13 22:33N 26°05' W 080°07'3 2.7
2014-Oct-13 21:33N 26°05' W 080°04'3 2.8
2014-Oct-13 20:33N 26°06' W 080°07'1 0.1
2014-Oct-13 15:07N 26°06' W 080°07'1 1.1
2014-Oct-13 14:33N 26°06' W 080°07'1 1.3
2014-Oct-13 13:34N 26°06' W 080°06'1 1.1
2014-Oct-13 12:33N 26°06' W 080°07'0 0.5
2014-Oct-13 11:33N 26°06' W 080°07'1 0.6
2014-Oct-13 10:33N 26°05' W 080°07'0 0.3
2014-Oct-13 09:33N 26°05' W 080°07'1 0.5
2014-Oct-13 07:24N 26°06' W 080°07'1 1.2
2014-Oct-13 06:33N 26°05' W 080°07'1 0.2
2014-Oct-13 01:33N 26°06' W 080°07'1 0.5
2014-Oct-13 00:33N 26°06' W 080°07'1 0.8
2014-Oct-12 23:31N 26°06' W 080°06'1 1.0
2014-Oct-12 22:32N 26°06' W 080°07'3 2.7
2014-Oct-12 21:34N 26°06' W 080°04'2 2.5
2014-Oct-12 20:33N 26°06' W 080°07'1 0.7
2014-Oct-12 19:33N 26°06' W 080°07'4 3.5
2014-Oct-12 18:34N 26°06' W 080°03'3 3.0
2014-Oct-12 17:34N 26°05' W 080°07'0 0.3
2014-Oct-12 16:33N 26°06' W 080°07'0 0.2
2014-Oct-12 15:33N 26°06' W 080°07'1 0.6
2014-Oct-12 14:33N 26°06' W 080°07'1 0.8
2014-Oct-12 13:33N 26°05' W 080°07'1 0.8
2014-Oct-12 12:33N 26°06' W 080°07'1 1.0
2014-Oct-12 11:33N 26°05' W 080°07'1 0.8
2014-Oct-12 10:23N 26°06' W 080°07'1 1.2
2014-Oct-12 09:33N 26°05' W 080°07'2 1.8
2014-Oct-12 08:33N 26°06' W 080°05'0 0.3
2014-Oct-12 07:33N 26°06' W 080°05'1 0.7
2014-Oct-12 06:33N 26°06' W 080°06'  

Dump ship's entire track history